TimeAKST,TemperatureF,Dew PointF,Humidity,Sea Level PressureIn,VisibilityMPH,Wind Direction,Wind SpeedMPH,Gust SpeedMPH,PrecipitationIn,Events,Conditions,WindDirDegrees,DateUTC
12:53 AM,39.0,39.0,100,29.72,1.8,West,11.5,-,N/A,,Overcast,270,2012-11-11 09:53:00
1:03 AM,39.2,39.2,100,29.72,2.0,West,12.7,-,N/A,,Overcast,270,2012-11-11 10:03:00
1:18 AM,39.2,39.2,100,29.72,1.8,West,11.5,-,N/A,,Overcast,270,2012-11-11 10:18:00
1:25 AM,39.2,39.2,100,29.72,2.0,West,11.5,-,N/A,,Overcast,270,2012-11-11 10:25:00
1:53 AM,39.0,39.0,100,29.73,2.0,West,11.5,-,0.01,,Overcast,270,2012-11-11 10:53:00
2:41 AM,39.2,39.2,100,29.74,3.0,WNW,12.7,-,N/A,,Overcast,290,2012-11-11 11:41:00
3:01 AM,39.2,39.2,100,29.74,3.0,WNW,13.8,-,N/A,,Overcast,290,2012-11-11 12:01:00
3:09 AM,39.2,39.2,100,29.74,3.0,WNW,13.8,-,N/A,,Overcast,290,2012-11-11 12:09:00
3:18 AM,39.2,39.2,100,29.74,2.5,WNW,13.8,-,N/A,,Overcast,290,2012-11-11 12:18:00
3:28 AM,39.2,37.4,93,29.75,3.0,WNW,12.7,-,N/A,,Overcast,290,2012-11-11 12:28:00
3:53 AM,37.9,37.9,100,29.75,3.0,WNW,12.7,-,0.01,,Overcast,290,2012-11-11 12:53:00
4:35 AM,37.4,37.4,100,29.76,2.5,WNW,11.5,-,0.01,,Overcast,290,2012-11-11 13:35:00
4:53 AM,37.9,37.9,100,29.77,2.5,WNW,12.7,-,0.02,,Overcast,300,2012-11-11 13:53:00
5:02 AM,37.4,37.4,100,29.77,3.0,WNW,10.4,-,N/A,,Overcast,300,2012-11-11 14:02:00
5:12 AM,37.4,37.4,100,29.77,2.5,WNW,12.7,-,N/A,,Overcast,300,2012-11-11 14:12:00
5:44 AM,37.4,37.4,100,29.78,3.0,WNW,11.5,-,0.01,,Overcast,300,2012-11-11 14:44:00
5:53 AM,37.9,37.9,100,29.78,2.5,WNW,10.4,-,0.01,Rain,Light Rain,290,2012-11-11 14:53:00
6:42 AM,37.4,37.4,100,29.79,3.0,WNW,11.5,-,0.01,,Overcast,290,2012-11-11 15:42:00
6:53 AM,37.9,37.0,97,29.80,3.0,WNW,11.5,-,0.01,,Overcast,300,2012-11-11 15:53:00
7:07 AM,37.4,37.4,100,29.80,2.5,WNW,13.8,-,N/A,,Overcast,300,2012-11-11 16:07:00
7:19 AM,37.4,37.4,100,29.81,3.0,WNW,13.8,-,0.01,,Overcast,290,2012-11-11 16:19:00
7:31 AM,37.4,37.4,100,29.81,2.5,WNW,13.8,-,0.01,,Overcast,300,2012-11-11 16:31:00
7:48 AM,37.4,37.4,100,29.82,3.0,WNW,13.8,-,0.01,,Overcast,300,2012-11-11 16:48:00
7:53 AM,37.0,37.0,100,29.83,3.0,WNW,13.8,-,0.01,,Overcast,300,2012-11-11 16:53:00
8:03 AM,37.4,35.6,93,29.82,2.5,WNW,13.8,-,0.01,,Overcast,300,2012-11-11 17:03:00
8:13 AM,37.4,37.4,100,29.83,3.0,WNW,12.7,-,0.01,,Overcast,300,2012-11-11 17:13:00
8:53 AM,36.0,36.0,100,29.84,5.0,WNW,12.7,-,0.01,,Overcast,300,2012-11-11 17:53:00
9:05 AM,35.6,35.6,100,29.84,5.0,WNW,11.5,-,N/A,,Overcast,300,2012-11-11 18:05:00
9:31 AM,35.6,35.6,100,29.85,2.5,WNW,9.2,-,N/A,,Overcast,300,2012-11-11 18:31:00
9:53 AM,36.0,36.0,100,29.86,2.5,WNW,11.5,-,N/A,,Overcast,300,2012-11-11 18:53:00
10:18 AM,35.6,35.6,100,29.87,4.0,WNW,9.2,-,0.01,,Overcast,300,2012-11-11 19:18:00
10:26 AM,37.4,37.4,100,29.87,5.0,WNW,9.2,-,0.01,,Overcast,300,2012-11-11 19:26:00
10:44 AM,37.4,35.6,93,29.88,5.0,WNW,11.5,-,0.01,,Overcast,300,2012-11-11 19:44:00
10:53 AM,37.0,36.0,96,29.89,3.0,WNW,12.7,-,0.01,,Overcast,290,2012-11-11 19:53:00
11:53 AM,37.0,36.0,96,29.91,4.0,WNW,16.1,-,0.01,,Overcast,300,2012-11-11 20:53:00
12:10 PM,37.4,37.4,100,29.91,10.0,WNW,15.0,-,N/A,,Overcast,300,2012-11-11 21:10:00
12:35 PM,37.4,35.6,93,29.92,10.0,WNW,13.8,-,N/A,,Overcast,290,2012-11-11 21:35:00
12:42 PM,37.4,35.6,93,29.92,10.0,WNW,15.0,-,N/A,,Overcast,300,2012-11-11 21:42:00
12:49 PM,37.4,35.6,93,29.92,10.0,WNW,13.8,-,N/A,,Overcast,300,2012-11-11 21:49:00
12:53 PM,37.0,36.0,96,29.93,10.0,WNW,12.7,-,N/A,,Overcast,300,2012-11-11 21:53:00
1:26 PM,37.4,35.6,93,29.93,4.0,WNW,15.0,-,0.00,Rain,Light Rain,300,2012-11-11 22:26:00
1:41 PM,37.4,35.6,93,29.93,10.0,WNW,15.0,-,0.00,,Overcast,300,2012-11-11 22:41:00
1:53 PM,37.9,36.0,93,29.94,10.0,NW,15.0,-,0.00,,Overcast,310,2012-11-11 22:53:00
2:53 PM,37.0,35.1,93,29.96,10.0,WNW,16.1,-,N/A,,Overcast,300,2012-11-11 23:53:00
3:09 PM,37.4,35.6,93,29.96,10.0,WNW,16.1,-,N/A,,Overcast,290,2012-11-12 00:09:00
3:19 PM,37.4,35.6,93,29.97,9.0,WNW,13.8,-,N/A,,Overcast,300,2012-11-12 00:19:00
3:33 PM,37.4,35.6,93,29.96,10.0,WNW,15.0,-,N/A,,Overcast,300,2012-11-12 00:33:00
3:49 PM,37.4,35.6,93,29.97,10.0,WNW,15.0,-,N/A,,Overcast,300,2012-11-12 00:49:00
3:53 PM,37.0,35.1,93,29.98,9.0,NW,16.1,-,N/A,,Overcast,310,2012-11-12 00:53:00
4:26 PM,35.6,35.6,100,29.98,6.0,NW,13.8,-,0.00,Rain,Light Rain,320,2012-11-12 01:26:00
4:53 PM,36.0,34.0,93,29.99,10.0,NW,12.7,-,0.00,,Overcast,320,2012-11-12 01:53:00
5:06 PM,35.6,33.8,93,29.98,10.0,NNW,9.2,-,N/A,,Overcast,330,2012-11-12 02:06:00
5:53 PM,35.1,34.0,96,30.01,7.0,NW,9.2,-,N/A,,Overcast,320,2012-11-12 02:53:00
6:14 PM,35.6,33.8,93,30.00,10.0,NW,8.1,-,N/A,,Overcast,320,2012-11-12 03:14:00
6:24 PM,35.6,33.8,93,30.01,10.0,NW,6.9,-,N/A,,Overcast,320,2012-11-12 03:24:00
6:53 PM,35.1,34.0,96,30.02,10.0,NW,10.4,-,N/A,,Overcast,320,2012-11-12 03:53:00
7:21 PM,33.8,33.8,100,30.02,10.0,NNW,8.1,-,0.00,,Mostly Cloudy,330,2012-11-12 04:21:00
7:53 PM,34.0,33.1,96,30.03,7.0,NNW,9.2,-,0.00,Rain,Light Rain,330,2012-11-12 04:53:00
8:04 PM,33.8,33.8,100,30.03,10.0,NNW,6.9,-,0.00,,Mostly Cloudy,330,2012-11-12 05:04:00
8:11 PM,33.8,33.8,100,30.03,10.0,NNW,5.8,-,0.00,,Overcast,340,2012-11-12 05:11:00
8:53 PM,33.1,33.1,100,30.06,10.0,North,4.6,-,0.00,,Mostly Cloudy,350,2012-11-12 05:53:00
9:12 PM,33.8,32.0,93,30.06,4.0,NNW,6.9,-,N/A,,Mostly Cloudy,340,2012-11-12 06:12:00
9:53 PM,33.1,32.0,96,30.07,10.0,NNW,5.8,-,N/A,,Mostly Cloudy,340,2012-11-12 06:53:00
9:58 PM,33.8,32.0,93,30.07,10.0,NNW,5.8,-,N/A,,Scattered Clouds,340,2012-11-12 06:58:00
10:23 PM,33.8,32.0,93,30.09,10.0,North,4.6,-,N/A,,Mostly Cloudy,360,2012-11-12 07:23:00
10:31 PM,33.8,32.0,93,30.09,10.0,North,4.6,-,N/A,,Mostly Cloudy,350,2012-11-12 07:31:00
10:41 PM,32.0,32.0,100,30.09,10.0,NNW,4.6,-,N/A,,Mostly Cloudy,330,2012-11-12 07:41:00
10:53 PM,32.0,32.0,100,30.10,10.0,NNW,5.8,-,N/A,,Mostly Cloudy,330,2012-11-12 07:53:00
11:08 PM,32.0,30.2,93,30.09,10.0,NNW,5.8,-,N/A,,Scattered Clouds,340,2012-11-12 08:08:00
11:30 PM,33.8,30.2,87,30.10,10.0,North,6.9,-,N/A,,Mostly Cloudy,360,2012-11-12 08:30:00
11:46 PM,32.0,30.2,93,30.10,10.0,North,5.8,-,N/A,,Mostly Cloudy,360,2012-11-12 08:46:00
11:50 PM,32.0,30.2,93,30.10,10.0,North,5.8,-,N/A,,Mostly Cloudy,360,2012-11-12 08:50:00
11:53 PM,32.0,30.9,96,30.11,10.0,North,5.8,-,N/A,,Mostly Cloudy,360,2012-11-12 08:53:00